Weather History for Salt Lake City, UT

Change the Weather History Date:

Thursday, January 10, 2013

  Actual Average Record
Temperature  
Mean Temperature 36 °F 29 °F  
Max Temperature 49 °F 37 °F 57 °F (1953)
Min Temperature 23 °F 22 °F -8 °F (1937)
Degree Days  
Heating Degree Days 29 36  
Month to date heating degree days 452 360  
Since 1 July heating degree days 2267 2654  
Cooling Degree Days 0 0  
Month to date cooling degree days 0 0  
Year to date cooling degree days 0 0  
Moisture  
Dew Point 25 °F    
Average Humidity 71    
Maximum Humidity 100    
Minimum Humidity 41    
Precipitation  
Precipitation 0.42 in 0.03 in 0.66 in (1911)
Month to date precipitation 0.43 0.42  
Year to date precipitation 0.43 0.42  
Snow  
Snow 6.30 in 0.40 in 6.30 in (2013)
Month to date snowfall 6.5 4.4  
Since 1 July snowfall 35.1 26.6  
Snow Depth 2.00 in    
Sea Level Pressure  
Sea Level Pressure 29.60 in    
Wind  
Wind Speed 20 mph (WNW)    
Max Wind Speed 33 mph    
Max Gust Speed 42 mph    
Visibility 4 miles    
Events Fog , Snow    
T = Trace of Precipitation, MM = Missing Value Source: NWS Daily Summary

Daily Weather History Graph

Daily Weather History Graph

Search for Another Location

Airport:

Trip Planner

Search our weather history database for the weather conditions in past years. The results will help you decide how hot, cold, wet, or windy it might be!

Date:

Astronomy

Jan. 10, 2013 Rise Set
Actual Time 7:51 AM MST 5:19 PM MST
Civil Twilight 7:21 AM MST 5:50 PM MST
Nautical Twilight 6:47 AM MST 6:24 PM MST
Astronomical Twilight 6:14 AM MST 6:57 PM MST
Moon 6:34 AM MST (1/10) 4:32 PM MST (1/10)
Length of Visible Light 10h 29m
Length of Day
9h 28m
Waning Crescent, 2% of the Moon is Illuminated
Jan 10
Waning Crescent
Jan 11
New
Jan 18
First Quarter
Jan 26
Full
Feb 3
Last Quarter

Hourly Weather History & Observations

Time (MST) Temp. Windchill Dew Point Humidity Pressure Visibility Wind Dir Wind Speed Gust Speed Precip Events Conditions
12:53 AM 43.0 °F 32.5 °F 24.1 °F 47% 29.72 in 10.0 mi SSE 29.9 mph 39.1 mph N/A   Overcast
1:53 AM 43.0 °F 32.5 °F 25.0 °F 49% 29.70 in 10.0 mi South 29.9 mph 39.1 mph N/A   Overcast
2:53 AM 43.0 °F 33.1 °F 24.1 °F 47% 29.70 in 10.0 mi South 26.5 mph 38.0 mph N/A   Overcast
3:53 AM 42.1 °F 31.7 °F 25.0 °F 51% 29.68 in 10.0 mi SSE 27.6 mph 34.5 mph N/A   Overcast
4:53 AM 44.1 °F 35.2 °F 24.1 °F 45% 29.61 in 10.0 mi SSE 23.0 mph 32.2 mph N/A   Overcast
5:53 AM 43.0 °F 35.1 °F 24.1 °F 47% 29.59 in 10.0 mi South 17.3 mph - N/A   Overcast
6:53 AM 43.0 °F 32.7 °F 24.1 °F 47% 29.55 in 10.0 mi South 28.8 mph 36.8 mph N/A   Mostly Cloudy
7:53 AM 43.0 °F 34.5 °F 24.1 °F 47% 29.57 in 10.0 mi SSW 19.6 mph - N/A   Scattered Clouds
8:53 AM 45.0 °F 36.9 °F 23.0 °F 42% 29.55 in 10.0 mi South 20.7 mph 28.8 mph N/A   Scattered Clouds
9:53 AM 45.0 °F 36.6 °F 24.1 °F 44% 29.54 in 10.0 mi South 21.9 mph - N/A   Scattered Clouds
10:53 AM 46.0 °F 38.5 °F 25.0 °F 44% 29.55 in 10.0 mi SSE 19.6 mph 26.5 mph N/A   Scattered Clouds
11:53 AM 46.9 °F - 25.0 °F 42% 29.52 in 10.0 mi SSE 19.6 mph 27.6 mph N/A   Mostly Cloudy
12:48 PM 35.6 °F 24.0 °F 26.6 °F 70% 29.55 in 10.0 mi North 23.0 mph 35.7 mph N/A   Mostly Cloudy
12:53 PM 36.0 °F 24.4 °F 27.0 °F 70% 29.53 in 10.0 mi North 23.0 mph 29.9 mph N/A   Mostly Cloudy
1:53 PM 36.0 °F 25.6 °F 27.0 °F 70% 29.53 in 10.0 mi WNW 18.4 mph - N/A   Mostly Cloudy
2:43 PM 34.0 °F 23.0 °F 27.0 °F 75% 29.55 in 1.2 mi WNW 18.4 mph - 0.00 in Snow Light Snow
2:53 PM 33.1 °F 22.2 °F 28.9 °F 85% 29.56 in 1.2 mi WNW 17.3 mph - 0.00 in Snow Light Snow
2:57 PM 32.0 °F 20.5 °F 28.9 °F 88% 29.57 in 1.2 mi WNW 18.4 mph - 0.00 in Snow Light Snow
3:02 PM 32.0 °F 20.5 °F 28.9 °F 88% 29.57 in 1.2 mi WNW 18.4 mph - 0.00 in Snow Light Snow
3:10 PM 32.0 °F 19.5 °F 28.9 °F 88% 29.58 in 2.0 mi WNW 21.9 mph 27.6 mph 0.00 in Snow Light Snow
3:24 PM 30.9 °F 18.7 °F 28.0 °F 89% 29.59 in 1.5 mi WNW 19.6 mph 28.8 mph 0.00 in Snow Light Snow
3:36 PM 30.9 °F 18.7 °F 28.9 °F 92% 29.58 in 1.0 mi WNW 19.6 mph - 0.00 in Snow Light Snow
3:53 PM 30.0 °F 17.9 °F 28.0 °F 92% 29.55 in 1.0 mi WNW 18.4 mph - 0.01 in Snow Light Snow
4:02 PM 30.0 °F 18.3 °F 28.0 °F 92% 29.58 in 0.8 mi West 17.3 mph - 0.00 in Snow Light Snow
4:53 PM 30.0 °F 17.5 °F 28.0 °F 92% 29.58 in 0.2 mi WNW 19.6 mph - 0.05 in Fog , Snow Heavy Snow
5:04 PM 30.0 °F 17.5 °F 28.0 °F 92% 29.58 in 0.5 mi WNW 19.6 mph 24.2 mph 0.02 in Fog , Snow Snow
5:13 PM 28.9 °F 15.1 °F 28.0 °F 96% 29.59 in 0.2 mi NW 23.0 mph 31.1 mph 0.02 in Fog , Snow Snow
5:53 PM 27.0 °F 15.2 °F 26.1 °F 96% 29.60 in 0.2 mi NNW 15.0 mph - 0.05 in Fog , Snow Snow
6:00 PM 27.0 °F 13.9 °F 26.1 °F 96% 29.60 in 0.2 mi NNW 18.4 mph - 0.01 in Fog , Snow Snow
6:07 PM 27.0 °F 13.9 °F 25.0 °F 92% 29.61 in 0.5 mi NNW 18.4 mph - 0.01 in Fog , Snow Snow
6:19 PM 26.1 °F 12.0 °F 25.0 °F 96% 29.61 in 0.5 mi NNW 20.7 mph - 0.01 in Snow Light Snow
6:38 PM 26.1 °F 12.7 °F 24.1 °F 92% 29.60 in 0.5 mi NNW 18.4 mph - 0.01 in   Mist
6:53 PM 26.1 °F 13.6 °F 24.1 °F 92% 29.62 in 0.5 mi NNW 16.1 mph - 0.02 in Snow Light Snow
7:28 PM 26.1 °F 14.0 °F 24.1 °F 92% 29.61 in 0.5 mi NNW 15.0 mph - 0.02 in Fog , Snow Light Snow
7:53 PM 25.0 °F 13.1 °F 24.1 °F 96% 29.62 in 0.5 mi NNW 13.8 mph - 0.02 in Snow Light Snow
8:05 PM 26.1 °F 14.5 °F 24.1 °F 92% 29.62 in 0.5 mi NNW 13.8 mph - 0.01 in Snow Light Snow
8:36 PM 25.0 °F 15.5 °F 24.1 °F 96% 29.63 in 1.0 mi NNW 9.2 mph - 0.02 in Snow Light Snow
8:53 PM 25.0 °F 15.5 °F 23.0 °F 92% 29.65 in 0.8 mi North 9.2 mph - 0.03 in Snow Light Snow
9:53 PM 25.0 °F 14.2 °F 21.9 °F 88% 29.63 in 1.0 mi North 11.5 mph - 0.02 in Snow Light Snow
10:29 PM 24.8 °F 13.4 °F 21.2 °F 86% 29.63 in 1.0 mi North 12.7 mph - N/A Snow Light Snow
10:53 PM 24.1 °F 12.0 °F 21.9 °F 91% 29.65 in 1.0 mi NNW 13.8 mph - 0.02 in Snow Light Snow
11:10 PM 24.1 °F 13.7 °F 21.9 °F 91% 29.64 in 1.0 mi NW 10.4 mph - 0.01 in Snow Light Snow
11:53 PM 23.0 °F 13.1 °F 21.0 °F 92% 29.65 in 1.0 mi NW 9.2 mph - 0.05 in Snow Light Snow